Regional Weather Roundup
Issued by NWS

Home | Current Version | Previous Version | Graphics & Text | Print | Product List | Glossary On
Versions: 1 2 3 4 5 6 7 8 9 10 11 12 13 14 15 16 17 18 19 20 21 22 23 24 25 26 27 28 29 30 31 32 33 34 35 36 37 38 39 40 41 42 43 44 45 46 47 48 49 50
000
ASUS45 KSLC 180610
RWRUT

UTAH REGIONAL WEATHER ROUNDUP
NATIONAL WEATHER SERVICE SALT LAKE CITY UT
1200 AM MDT SAT APR 18 2015

UTZ001>011-023>025-180700-

NORTHERN UTAH

CITY           SKY/WX    TMP DP  RH WIND       PRES   REMARKS
BRIGHAM CITY   CLEAR     50  39  67 CALM      30.04F
HILL AFB       CLEAR     50  37  60 E13       30.04F
LOGAN          CLEAR     51  36  56 S12       30.04S
OGDEN          CLEAR     52  36  54 E3        30.03F
PROVO AIRPORT  MOCLDY    52  37  58 N7        30.05S
SALT LAKE CITY PTCLDY    52  37  56 SE5       30.04S
VERNAL         CLOUDY    45  32  60 N6        30.03F
WENDOVER       CLEAR     52  21  30 NE5       30.05S
HEBER CITY     MOCLDY    43  34  70 SE5       30.08S
WEST JORDAN    MOCLDY    52  37  58 N8        30.05F

$$

UTZ012>022-026-027-180700-

SOUTHERN/CENTRAL UTAH

CITY           SKY/WX    TMP DP  RH WIND       PRES   REMARKS
BLANDING       CLOUDY    35  34  97 E3        30.09S
BRYCE CANYON   CLEAR     40  27  59 N12G20    30.10S WCI  33
CEDAR CITY     CLEAR     39  29  67 NE7       30.07S WCI  34
DELTA          MOCLDY    46  29  52 SW8       30.05R
HANKSVILLE     CLOUDY    43  41  93 CALM      30.05S
MILFORD        CLEAR     41  29  62 CALM      30.06S
MOAB/CYNLANDS  LGT RAIN  41  40  96 E6        30.03S
PRICE          CLOUDY    41  34  76 E5        30.04R
ST GEORGE      MOCLDY    57  27  30 SE3       30.02R
KANAB          MOCLDY    46  32  57 CALM      30.09F

$$

REGIONAL REPORTS     COLORADO/ARIZONA

CITY           SKY/WX    TMP DP  RH WIND       PRES   REMARKS
CRAIG, CO      MOCLDY    32  30  92 CALM      30.04R
GRAND JUNCTION CLOUDY    35  35 100 CALM      30.06R
RIFLE          CLOUDY    36  34  92 NE5       30.06F FOG     WCI  32
MONTROSE       LGT SNOW  33  32  96 SW3       30.06S FOG
CORTEZ         LGT SNOW  32  32 100 CALM      30.03F VSB 3/4
PAGE, AZ       CLOUDY    56  32  40 N3        30.02R
GRAND CANYON   PTCLDY    31  25  78 CALM      30.13R
KINGMAN        CLEAR     52  18  26 SW3       30.02S
FLAGSTAFF      PTCLDY    32  25  75 CALM      30.13R

$$

REGIONAL REPORTS    NEVADA/IDAHO/WYOMING

CITY           SKY/WX    TMP DP  RH WIND       PRES   REMARKS
LAS VEGAS, NV  CLEAR     69  14  12 S8        29.90R
ELY            CLEAR     40  11  30 CALM      30.13R
ELKO           CLEAR     44  20  38 NW3       30.12R
POCATELLO, ID  CLEAR     53  25  33 SW13      30.05S
BURLEY         CLEAR     40  26  57 SW9       30.03S WCI  34
EVANSTON, WY   PTCLDY    36  30  79 E12       30.12F WCI  28
ROCK SPRINGS   CLOUDY    35  33  92 NE8       30.09R WCI  29
KEMMERER       CLEAR     34  32  93 CALM      30.13F

$$


USA.gov is the U.S. government's official web portal to all federal, state and local government web resources and services.